Location: Unspecified
(35.6961°N, 0.0000°E)
Time: 02:55:18
(UTC+00:00)

S-56A Canister/Altair - Pass Details

Date: 02 June 2019
Orbit: 633 x 2499 km, 38.9° (Epoch: 16 June)

Event Time Altitude Azimuth Distance (km) Brightness Sun altitude
Rises 00:58:42 0° 279° (W) 3,082 - -30.4°
Reaches altitude 10° 01:00:49 10° 283° (WNW) 2,273 - -30.3°
Exits shadow 01:04:27 47° 305° (NW) 1,135 8.3 -30.1°
Maximum altitude 01:06:01 67° 6° (N) 1,005 8.1 -30.0°
Drops below altitude 10° 01:13:35 10° 88° (E) 3,264 10.9 -29.5°
Sets 01:17:10 0° 91° (E) 4,547 11.7 -29.2°
